Timeline UpdatesTrip UpdatesNews PostsPvt PostsTravel TipsAdmin PostsConv PostsFollowed PostsChat RequestsBlog PostsPNR Posts

Disclaimer
Search
 
 
Mon Jul 28, 2014 21:59:26 ISTHomeTrainsΣChainsAtlasPNRForumGalleryNewsFAQTripsMembersLoginFeedback
No Recent News for this Train
Other Trains in the News **new
Latest...
.
Sat Sep 10, 2011 (03:37PM)
⇐ Return Journey: Train# 11464

11463/Somnath-Jabalpur Express

Jul 02 2013 (6:48PM)
Change Departure Station:
Change Arrival Station:
Post a Train Travel TipPost a Train Travel Tip **new
Post a Comment/Question/Picture/VideoPost a Comment/Question/Picture/Video
Pantry/Catering
✕ NO Pantry Car
✓ Catering Avbl
There is NO Pantry.; CATERING AVAILABLE. Food served at Jetalsar.
Loco/Rake Reversals
BRC/Vadodara Junction (7); ET/Itarsi Junction (7);
RSA - Rake Sharing
Has RSA with 11465/11466 Somnath-Jabalpur Express.
Rake/Coach Composition
LOCO(Diesel)-SLR/LD-GEN-GEN-S11-S10-S9-S8-S7-S6-S5-S4-S3-S2-S1-B3-B2-B1-A1-GEN-SLR;
Loco
WDM 2/3 of Ratlam Shed. & WAp4ET
News    PNR    Forum    Time-Table    Availability    Fare Chart    Map    Arr/Dep History    Trips    Gallery    ΣChains    X/O    Timeline    
Travel Time: 29h 20m    46 halts    Distance: 1410 km    Avg Speed: 48 km/hr
Type: Mail/Express
Zone: WCR/West Central
Departs @ 09:50 (Avg 2m late)
Platform# 1
S TWTF 
Veraval/VRL 
Arrives @ 15:10 +1 night (Avg 21m late)
Platform# 4
 M WTFS
Jabalpur Junction/JBP 

46 halts. 200 intermediate Stations between Veraval and Jabalpur Junction

Show ALL intermediate Stations  Show Old Time-Table

#CodeStation NameX/OArrivesAvgDepartsAvgHaltPFDay#KmSpeedElevZoneAddress
1SMNHSomnath (2)  -09:30+111-5.13012mWRSomnath, Gujarat
2VRL»Veraval (5)»X  09:40+109:50+210m110.0608mWRVeraval, Gujarat
3MLHAMaliya Hatina (2)X  10:20+1510:22+142m--130.26454mWRMalia, Gujarat
4KSDKeshod (2)  10:37+1910:39+192m1146.34446mWRKeshod, Gujarat
5JNDJunagadh Junction (5)  11:27+1911:29+202m--181.75886mWRJunagadh, Gujarat
6JLRJetalsar Junction (5)  11:56+2112:04+228m--1107.739108mWRRajkot, Gujarat
7VRRVirpur (2)  12:34+1312:36+122m--1127.262121mWRRajkot, Gujarat
8GDLGondal (3)  12:52+1412:54+132m11143.843141mWRGondal, Gujarat
9BKNGBhakti Nagar (3)  13:43+013:45+102m11179.028142mWRRajkot, Gujarat
10RJTRajkot Junction (5)  13:58+1014:03+125m11185.170128mWRRajkot, Gujarat
11WKRWankaner Junction (4)X  14:39+2314:41+242m--1226.95587mWRWankaner, Gujarat
12THANThan Junction (3)  15:10+2315:12+232m11253.567138mWRThangadh, Gujarat
13SUNRSurendranagar Junction (4)X  15:55+2015:57+212m--1301.25372mWRSurendra Nagar, Gujarat
14VGViramgam Junction (5)  17:11+1017:13+112m--1366.65529mWRViramgam, Gujarat
15ADIAhmedabad Junction (12)X  18:25+1318:45+720m41432.05651mWRAhmedabad, Gujarat
16MHDMahemdavad Kheda Road (4)  19:15+2319:17+232m21460.07537mWRMahemdavad, Gujarat
17NDNadiad Junction (4)  19:31+2619:33+262m11477.66237mWRNadiad, Gujarat
18ANNDAnand Junction (6)X  19:51+2719:53+272m11496.15144mWRAnand, Gujarat
19BRCVadodara Junction (7)XO20:35+2521:00+3025m41531.8-36mWRVadodara 390005, Gujarat
20DRLDerolXO  21:20+1:1221:42+5222m11582.23181mWRKalol, Gujarat
21GDAGodhra Junction (3)X  22:28+1322:30+142m21605.780122mWRGodhra, Gujarat
22DHDDahod (3)  23:25+5323:27+532m--1678.890313mWRDahod, Gujarat
23MGNMeghnagar (3)  23:49+1:0123:51+1:012m--1712.046317mWRJhabua, Madhya Pradesh
24RTMRatlam Junction (7)X  01:35+3201:50+3515m52792.375495mWRRatlam, Madhya Pradesh
25KUHKhachrod (2)  02:12+4602:14+482m--2819.946497mWRUjjain, Madhya Pradesh
26NADNagda Junction (4)O  02:32+4002:35+443m--2833.751468mWRNagda, Madhya Pradesh
27UJNUjjain Junction (8)  03:40+3903:50+5110m--2889.376492mWRUjjain 456001, Madhya Pradesh
28TANTarana RoadO  04:15+1:0204:17+1:022m--2920.821498mWRMaksi, Madhya Pradesh
29MKCMaksi Junction (3)X  04:45+4704:47+472m--2930.481513mWRMakshi, Madhya Pradesh
30BCHBerchha (2)  05:01+5305:03+532m--2949.266490mWRShajapur, Madhya Pradesh
31KSHKali Sindh (2)  05:14+5205:16+522m--2961.472443mWRShajapur, Madhya Pradesh
32AKDAkodia (2)  05:31+5205:33+532m12979.356460mWRDist. Shajapur, Madhya Pradesh
33SJPShujalpur (3)X  05:47+5205:49+522m--2992.463453mWRShujalpur, Madhya Pradesh
34KPPKalapipal (2)  06:01+5206:03+522m121005.070487mWRState Highway 41, Madhya Pradesh
35PRBParbati (2)  06:16+5306:18+522m--21020.164472mWRSehore, Madhya Pradesh
36SEHSehore (2)X  06:31+5206:33+522m221034.018500mWRMP 466001, Madhya Pradesh
37BIHBairagarh (2)08:08+308:10+62m221062.531522mWRBhopal, Madhya Pradesh
38BPLBhopal Junction (6)X  08:30+1908:35+315m421072.738497mWCRBhopal, Madhya Pradesh
39HBJBhopal HabibGanj (5)  08:45+3508:47+362m421079.061496mWCRHabibGanj, Madhya Pradesh
40HBDHoshangabad (2)X  09:53+3709:55+362m--21146.331308mWCRHoshangabad, Madhya Pradesh
41ETItarsi Junction (7)X10:30+2510:45+2515m221164.471329mWCRItarsi 461111, Madhya Pradesh
42SGPSohagpur (2)X11:27+5311:29+562m--21213.976340mWCRSohagpur, Madhya Pradesh
43PPIPipariya (3)X  11:43+5611:45+582m121231.690338mWCRPiparia, Madhya Pradesh
44GARGadarwara (2)  12:18+1:0912:20+1:092m121281.058352mWCRNarsinghpur, Madhya Pradesh
45KYKareli (2)XO  12:49+1:0312:51+1:042m121309.032361mWCRKareli, Madhya Pradesh
46NUNarsinghpur (2)  13:22+5013:24+502m121325.455365mWCRNarsimhapur, Madhya Pradesh
47SRIDShridham (3)X  13:58+4314:00+422m221356.473373mWCRShridham, Madhya Pradesh
48MMLMadan Mahal (3)  14:41+3914:43+402m321406.18428mWCRJabalpur, Madhya Pradesh
49JBP•Jabalpur Junction (4)•  15:10+21-421409.6-416mWCRJabalpur, Madhya Pradesh
Scroll to Top
Scroll to Bottom